Theta_e
311 311 311 312 314 313 317 315 312 307 308 310 310 308 309 311 314 311 312 315 315 315 315 315 316 317 318 318 318 319 319 319 319 319 317 315 313 311
313 311 311 313 312 309 309 311 310 310 307 306 304 306 307 308 311 307 309 311 313 314 314 313 313 313 314 314 315 314 313 313 312 310 309 308 307 307
310 310 310 307 307 304 306 308 309 307 306 302 303 304 303 303 303 305 306 306 308 311 311 309 309 309 309 309 308 308 308 307 307 306 306 305 305 305
309 307 306 306 300 300 303 307 305 304 302 302 300 300 300 301 301 301 302 304 305 309 308 307 306 306 305 305 304 304 303 303 303 303 303 303 303 305
307 305 305 304 301 299 303 302 301 301 300 300 298 300 299 300 299 299 299 300 303 307 305 305 305 304 304 303 304 303 302 301 301 301 301 301 302 303
304 305 304 303 298 300 300 296 299 299 298 298 297 297 298 299 298 296 296 298 298 302 303 304 304 304 304 304 304 302 301 300 300 300 300 300 300 301
304 304 304 304 305 303 298 295 296 296 296 295 295 295 295 296 295 297 296 297 298 300 300 300 301 301 301 303 302 301 300 300 299 299 300 300 300 300
302 303 303 303 303 303 303 302 296 295 295 294 294 294 295 296 295 293 292 291 290 297 299 298 301 299 300 299 301 300 300 299 299 300 300 299 299 299
303 302 302 303 301 300 300 301 301 301 299 293 295 295 295 297 297 297 296 295 293 294 295 294 298 298 300 300 300 300 300 299 299 299 299 299 298 298
305 305 302 300 299 300 298 296 295 295 296 298 294 293 294 296 298 298 298 297 296 294 297 293 297 297 299 299 301 301 300 300 300 300 300 299 298 298
299 301 302 300 299 299 299 296 295 296 300 300 299 298 297 298 298 294 292 294 293 293 297 294 295 295 298 298 299 301 300 300 300 300 300 300 299 299
299 299 299 297 296 298 297 297 295 296 297 298 297 298 298 299 301 297 295 293 292 291 295 294 294 294 294 297 298 298 299 300 300 299 299 299 298 301
297 298 299 296 294 294 295 295 295 295 297 299 298 295 296 297 297 299 298 296 294 293 297 295 294 294 294 293 296 297 298 298 298 298 298 297 297 296
296 296 294 294 293 294 295 294 294 295 294 298 297 295 294 295 296 299 300 299 298 296 297 296 294 294 293 292 292 296 297 297 297 295 295 296 296 296
294 295 295 294 295 295 295 295 295 294 294 296 295 295 294 293 296 299 300 300 299 299 298 296 295 295 294 292 292 294 294 295 295 294 293 293 293 294
297 296 297 296 295 295 294 294 295 294 293 296 296 296 296 292 295 297 296 297 295 295 298 298 296 295 292 293 293 293 294 292 294 294 293 292 293 293
296 292 292 291 291 291 291 293 294 294 293 296 295 295 292 292 295 296 296 296 294 291 292 295 296 296 295 293 291 292 293 292 293 293 292 290 292 292
290 288 287 288 287 287 288 289 291 293 291 293 292 292 291 293 294 296 296 295 293 292 292 292 292 294 294 294 295 291 292 291 292 292 291 289 289 292
288 287 287 287 287 288 287 288 288 289 291 291 290 292 296 295 295 294 294 294 293 292 291 291 291 290 288 285 290 295 292 292 292 291 291 290 289 290
287 287 287 287 288 289 289 290 291 291 291 290 293 295 296 295 294 293 293 292 292 292 291 290 290 289 286 285 285 290 292 293 293 292 291 292 291 293
285 286 286 287 288 288 288 288 289 291 291 293 294 294 294 295 293 293 293 290 290 291 289 289 290 287 292 293 288 288 291 294 295 292 293 291 290 289
285 285 286 286 285 285 285 285 288 290 291 293 293 294 294 294 292 292 292 291 292 292 291 291 292 291 290 288 286 287 289 292 294 295 295 294 292 285
284 284 284 284 284 284 283 283 283 284 286 288 293 294 294 293 293 292 292 292 291 292 292 289 290 290 289 288 288 289 289 289 290 289 291 294 295 295
Wind_Speed
5 6 5 6 4 4 5 5 5 7 7 1 0 3 3 4 4 5 6 13 13 14 16 17 19 20 19 19 23 22 20 20 17 17 17 14 11 8
5 6 5 2 5 4 4 5 4 5 6 3 2 2 4 3 6 6 7 11 13 13 16 18 19 18 20 18 17 18 18 17 15 12 10 7 5 2
4 3 7 5 5 5 4 4 2 2 3 2 2 4 4 4 5 5 6 5 4 10 13 14 15 16 17 17 17 15 15 13 11 9 6 4 2 2
5 3 5 5 6 6 4 3 3 2 1 1 2 3 3 4 3 4 5 5 5 11 13 12 13 13 13 13 12 11 11 9 8 6 4 3 3 5
2 2 3 5 4 3 4 3 3 3 3 2 2 3 3 2 2 3 3 4 3 8 9 9 9 9 9 9 9 9 9 7 6 4 3 3 3 6
2 4 2 3 2 6 3 3 3 4 4 4 3 2 2 2 2 2 3 2 3 2 4 4 5 6 7 4 7 7 7 7 6 4 3 4 5 6
3 3 2 5 15 8 2 3 4 4 3 3 3 2 2 2 2 2 2 3 2 2 2 1 0 1 3 5 6 8 7 6 5 5 5 5 6 6
6 4 1 6 9 10 10 9 6 4 4 2 1 2 2 2 2 2 2 2 3 3 3 3 1 1 2 2 6 6 7 7 6 6 6 6 6 7
8 5 3 4 3 3 7 9 8 8 4 1 1 1 2 2 3 3 1 1 1 4 2 2 2 1 1 2 4 6 7 7 6 6 7 7 7 7
5 5 6 1 1 3 5 4 5 5 4 2 1 2 2 5 3 3 2 0 1 3 4 2 3 2 1 2 4 7 7 7 6 6 7 7 7 7
10 8 4 5 4 3 3 3 4 3 3 4 5 6 8 7 5 3 4 2 2 2 4 2 3 3 1 1 1 7 6 7 5 6 6 7 7 2
8 4 9 5 4 4 4 2 1 3 2 3 5 5 6 6 8 4 2 3 2 3 3 3 3 2 1 1 1 3 3 7 7 7 9 9 14 2
4 4 3 8 11 8 5 5 5 3 4 2 2 3 3 4 3 3 4 3 2 2 5 2 2 2 2 2 1 2 3 3 3 4 9 11 11 10
3 3 4 9 11 10 7 9 5 7 2 2 3 3 3 3 3 3 3 3 3 2 5 5 1 2 2 2 2 3 2 4 4 4 5 7 9 10
2 5 7 8 10 7 11 12 8 4 4 3 1 2 2 3 4 2 2 3 2 2 3 4 2 3 2 1 2 2 2 3 5 4 4 5 6 4
6 5 6 4 4 5 7 9 7 6 4 3 2 3 3 4 4 3 3 3 2 3 2 4 5 4 2 2 2 2 4 2 3 4 4 4 5 5
3 4 6 6 7 6 6 8 8 8 7 4 4 3 3 3 3 3 3 2 2 4 4 3 2 4 6 6 3 4 4 3 4 4 4 3 5 6
6 5 5 5 5 5 5 6 6 8 5 5 4 4 4 4 4 3 4 3 3 5 5 4 3 2 1 4 14 4 4 3 4 4 4 3 6 7
7 5 4 5 5 6 5 5 4 4 4 4 4 4 3 5 5 4 4 4 4 4 4 5 5 3 3 3 4 17 3 3 2 5 4 4 3 5
6 6 6 6 6 6 5 4 5 5 5 4 5 6 5 4 5 5 5 4 3 4 4 4 4 4 2 2 1 3 15 3 2 1 2 2 1 7
6 7 6 6 6 6 5 5 4 4 4 4 5 5 6 4 5 5 5 6 5 3 5 4 3 3 2 2 2 3 5 16 11 2 1 3 3 5
5 6 6 6 6 6 6 5 5 6 6 6 5 4 5 4 5 5 5 5 4 2 1 2 4 4 4 3 3 3 3 4 10 23 23 13 2 4
5 5 5 5 5 5 5 5 5 5 5 5 5 4 5 5 5 4 4 4 4 4 2 3 4 3 4 4 4 5 10 9 6 12 13 19 16 15
Wind_Direction
286 283 264 270 287 284 291 297 291 311 307 30 254 13 357 340 33 2 5 32 31 37 40 45 50 58 61 72 80 74 79 89 100 102 109 120 131 132
314 295 290 273 289 284 286 281 260 275 288 38 35 358 352 355 32 20 21 19 30 48 57 60 60 62 65 61 75 85 89 87 89 91 96 93 94 96
316 339 299 302 296 303 288 277 322 356 297 132 33 2 23 6 16 10 11 0 344 61 64 62 66 66 67 70 70 69 72 76 81 83 79 73 24 291
282 264 284 313 316 294 293 355 46 15 292 293 57 32 30 9 358 6 358 359 4 54 58 60 64 65 66 71 73 71 68 61 54 51 37 6 310 286
276 40 340 308 302 326 8 1 14 22 4 29 80 41 20 351 352 349 345 345 358 32 42 50 65 69 74 72 73 62 57 53 42 23 358 346 320 310
87 80 340 314 10 37 19 18 32 51 47 58 53 38 16 344 356 341 336 329 333 350 16 33 58 70 68 67 72 45 32 20 3 352 349 324 311 295
111 83 236 70 63 58 56 22 53 56 50 45 45 23 20 7 342 306 293 305 297 339 309 307 329 35 33 50 29 21 10 356 344 333 327 315 302 290
158 120 219 64 68 67 64 79 98 88 71 50 32 24 342 292 302 293 297 346 340 9 317 334 329 1 13 30 20 7 356 353 346 336 325 320 316 307
151 163 90 51 54 59 52 50 57 82 93 164 71 343 319 289 296 296 354 352 31 316 323 338 354 322 340 13 346 333 339 345 335 334 327 318 305 295
150 150 106 104 1 44 61 50 40 27 338 358 230 284 277 287 248 249 232 242 303 343 359 352 342 326 349 314 314 331 323 326 323 321 320 315 299 283
63 68 113 228 166 99 99 76 48 14 332 322 308 323 346 9 44 63 14 5 319 341 9 331 336 320 257 318 337 343 353 343 12 347 332 326 321 277
64 68 69 50 44 226 238 180 240 259 281 327 355 356 3 357 31 53 67 43 344 334 338 334 324 332 280 182 2 342 340 357 357 13 10 36 17 10
72 90 75 9 336 320 295 243 224 206 275 248 351 333 342 357 356 10 39 63 38 342 320 320 333 326 312 314 314 353 350 342 2 4 29 32 31 31
117 15 339 331 305 323 354 335 355 203 199 150 37 346 4 349 332 330 31 75 71 85 332 345 337 324 323 331 329 334 13 20 22 24 22 20 24 26
323 275 296 341 354 360 15 19 25 45 134 107 71 13 18 320 324 342 76 91 69 10 25 352 350 341 359 349 317 324 345 37 29 32 24 25 14 358
344 333 346 18 23 21 21 15 24 33 91 114 89 43 14 11 344 16 17 6 11 333 45 29 14 24 341 352 359 4 21 46 5 21 18 21 18 12
0 36 45 34 32 21 24 24 25 38 43 21 41 36 6 14 360 356 357 337 35 353 360 4 354 59 53 35 24 9 29 38 28 20 16 19 22 17
54 49 34 32 33 21 28 29 27 30 20 29 19 17 22 3 353 355 3 355 359 15 2 358 344 297 39 55 40 4 27 25 22 26 16 32 30 20
52 34 31 29 22 27 29 34 19 5 2 22 21 8 11 14 4 6 359 355 20 18 7 360 7 18 40 36 347 17 20 23 23 49 31 38 44 23
44 42 37 29 26 29 16 25 14 9 8 1 10 10 3 12 11 2 359 352 13 6 17 15 18 31 45 11 27 351 15 2 348 52 49 23 2 24
32 40 27 25 25 24 14 4 7 358 357 351 0 10 10 10 10 3 356 350 348 13 25 20 21 349 20 12 36 13 23 29 44 45 72 63 51 40
34 41 28 29 22 16 9 2 358 1 355 353 348 356 7 9 2 357 356 353 348 7 86 62 29 31 38 49 47 35 36 22 46 61 56 59 40 59
35 32 17 19 13 13 6 1 1 349 350 342 342 356 15 6 2 358 355 357 354 342 66 58 43 30 50 56 50 67 68 59 60 66 58 49 63 66